• In Uzbekistan
  • List of Countries
  • For 7 days
  • Water Temperature
  • Satellite Maps
  • Weather Map
  • Weather Widgets
  • user-avatar
    Login

    Hourly Weather Wadzhir

    Today, 19 November, Monday

    Time Temperature Precipitation Wind Pressure Humidity
    00:00 +30°C° 0.7 mm 4 mps 736 mmHg 65%
    01:00 +30°C° 0.9 mm 4 mps 736 mmHg 68%
    02:00 +29°C° 0.9 mm 4 mps 736 mmHg 70%
    03:00 +29°C° 0.9 mm 4 mps 736 mmHg 73%
    04:00 +29°C° 0.1 mm 4 mps 736 mmHg 75%
    05:00 +28°C° 0.1 mm 4 mps 736 mmHg 77%
    06:00 +28°C° 0.1 mm 4 mps 736 mmHg 79%
    07:00 +29°C° 0.9 mm 4 mps 737 mmHg 74%
    08:00 +30°C° 0.9 mm 5 mps 737 mmHg 70%
    09:00 +32°C° 0.9 mm 5 mps 737 mmHg 65%
    10:00 +32°C° 1.6 mm 5 mps 737 mmHg 61%
    11:00 +33°C° 1.6 mm 4 mps 737 mmHg 57%
    12:00 +34°C° 1.6 mm 3 mps 737 mmHg 53%
    13:00 +34°C° 0.5 mm 3 mps 736 mmHg 52%
    14:00 +34°C° 0.5 mm 3 mps 736 mmHg 51%
    15:00 +35°C° 0.5 mm 4 mps 735 mmHg 50%
    16:00 +34°C° 0.1 mm 3 mps 735 mmHg 51%
    17:00 +34°C° 0.1 mm 3 mps 735 mmHg 53%
    18:00 +34°C° 0.1 mm 3 mps 735 mmHg 54%
    19:00 +33°C° 0.3 mm 3 mps 735 mmHg 57%
    20:00 +33°C° 0.3 mm 3 mps 736 mmHg 60%
    21:00 +31°C° 0.3 mm 3 mps 736 mmHg 62%
    22:00 +31°C° 1 mm 3 mps 736 mmHg 65%
    23:00 +30°C° 1 mm 3 mps 736 mmHg 67%

    Tomorrow, 20 November, Tuesday

    Time Temperature Precipitation Wind Pressure Humidity
    00:00 +30°C° 1 mm 3 mps 736 mmHg 69%
    01:00 +29°C° 0 mm 3 mps 736 mmHg 72%
    02:00 +29°C° 0 mm 3 mps 736 mmHg 74%
    03:00 +28°C° 0 mm 3 mps 736 mmHg 77%
    04:00 +28°C° 0 mm 3 mps 736 mmHg 78%
    05:00 +28°C° 0 mm 3 mps 736 mmHg 80%
    06:00 +27°C° 0 mm 3 mps 736 mmHg 82%
    07:00 +28°C° 0 mm 4 mps 737 mmHg 78%
    08:00 +29°C° 0 mm 4 mps 738 mmHg 74%
    09:00 +30°C° 0 mm 5 mps 738 mmHg 70%
    10:00 +32°C° 0 mm 5 mps 738 mmHg 65%
    11:00 +32°C° 0 mm 4 mps 738 mmHg 60%
    12:00 +33°C° 0 mm 4 mps 737 mmHg 55%
    13:00 +34°C° 0 mm 3 mps 736 mmHg 52%
    14:00 +34°C° 0 mm 3 mps 736 mmHg 48%
    15:00 +34°C° 0 mm 3 mps 735 mmHg 45%
    16:00 +34°C° 0 mm 3 mps 735 mmHg 45%
    17:00 +34°C° 0 mm 2 mps 735 mmHg 44%
    18:00 +34°C° 0 mm 2 mps 735 mmHg 44%
    19:00 +33°C° 0 mm 1 mps 735 mmHg 47%
    20:00 +32°C° 0 mm 1 mps 736 mmHg 50%
    21:00 +32°C° 0 mm 1 mps 736 mmHg 53%
    22:00 +31°C° 0 mm 1 mps 737 mmHg 53%
    23:00 +31°C° 0 mm 1 mps 737 mmHg 53%

    Day after tomorrow, 21 November, Wednesday

    Time Temperature Precipitation Wind Pressure Humidity
    00:00 +30°C° 0 mm 1 mps 737 mmHg 54%
    01:00 +30°C° 0 mm 2 mps 736 mmHg 58%
    02:00 +29°C° 0 mm 3 mps 736 mmHg 63%
    03:00 +28°C° 0 mm 3 mps 735 mmHg 67%
    04:00 +28°C° 0 mm 3 mps 736 mmHg 72%
    05:00 +27°C° 0 mm 3 mps 736 mmHg 77%
    06:00 +27°C° 0 mm 4 mps 736 mmHg 82%
    07:00 +28°C° 0 mm 4 mps 737 mmHg 77%
    08:00 +29°C° 0 mm 4 mps 737 mmHg 72%
    09:00 +29°C° 0 mm 5 mps 738 mmHg 67%
    10:00 +32°C° 0 mm 4 mps 738 mmHg 59%
    11:00 +33°C° 0 mm 4 mps 737 mmHg 52%
    12:00 +34°C° 0 mm 3 mps 737 mmHg 45%
    13:00 +35°C° 0 mm 4 mps 736 mmHg 41%
    14:00 +36°C° 0 mm 4 mps 735 mmHg 37%
    15:00 +36°C° 0 mm 4 mps 734 mmHg 33%
    16:00 +36°C° 0 mm 4 mps 734 mmHg 34%
    17:00 +36°C° 0 mm 3 mps 734 mmHg 34%
    18:00 +36°C° 0 mm 3 mps 734 mmHg 35%
    19:00 +35°C° 0 mm 2 mps 735 mmHg 37%
    20:00 +34°C° 0 mm 2 mps 736 mmHg 38%
    21:00 +34°C° 0 mm 2 mps 736 mmHg 40%
    22:00 +32°C° 0 mm 2 mps 736 mmHg 41%
    23:00 +32°C° 0 mm 2 mps 736 mmHg 42%

    22 November, Thursday

    Time Temperature Precipitation Wind Pressure Humidity
    00:00 +31°C° 0 mm 2 mps 736 mmHg 42%
    01:00 +30°C° 0 mm 3 mps 736 mmHg 48%
    02:00 +29°C° 0 mm 3 mps 735 mmHg 54%
    03:00 +29°C° 0 mm 4 mps 735 mmHg 59%
    04:00 +28°C° 0 mm 4 mps 735 mmHg 65%
    05:00 +28°C° 0 mm 4 mps 736 mmHg 71%
    06:00 +27°C° 0 mm 4 mps 736 mmHg 76%
    07:00 +28°C° 0 mm 4 mps 737 mmHg 71%
    08:00 +29°C° 0 mm 5 mps 737 mmHg 67%
    09:00 +30°C° 0 mm 5 mps 738 mmHg 62%
    10:00 +32°C° 0 mm 5 mps 738 mmHg 55%
    11:00 +33°C° 0 mm 4 mps 737 mmHg 49%
    12:00 +35°C° 0 mm 4 mps 737 mmHg 42%
    13:00 +35°C° 0 mm 4 mps 736 mmHg 38%
    14:00 +36°C° 0 mm 3 mps 735 mmHg 35%
    15:00 +37°C° 0 mm 3 mps 734 mmHg 31%
    16:00 +36°C° 0 mm 3 mps 734 mmHg 32%
    17:00 +36°C° 0 mm 3 mps 734 mmHg 32%
    18:00 +36°C° 0 mm 3 mps 734 mmHg 33%
    19:00 +35°C° 0 mm 3 mps 735 mmHg 34%
    20:00 +35°C° 0 mm 2 mps 736 mmHg 36%
    21:00 +34°C° 0 mm 2 mps 736 mmHg 38%
    22:00 +34°C° 0 mm 2 mps 736 mmHg 39%
    23:00 +32°C° 0 mm 2 mps 736 mmHg 41%

    23 November, Friday

    Time Temperature Precipitation Wind Pressure Humidity
    00:00 +32°C° 0 mm 2 mps 736 mmHg 42%
    01:00 +31°C° 0 mm 3 mps 736 mmHg 49%
    02:00 +30°C° 0 mm 4 mps 735 mmHg 55%
    03:00 +29°C° 0 mm 4 mps 735 mmHg 62%
    04:00 +28°C° 0.1 mm 4 mps 736 mmHg 67%
    05:00 +28°C° 0.1 mm 4 mps 736 mmHg 71%
    06:00 +27°C° 0.1 mm 4 mps 737 mmHg 76%
    07:00 +28°C° 0 mm 5 mps 737 mmHg 72%
    08:00 +29°C° 0 mm 5 mps 738 mmHg 67%
    09:00 +30°C° 0 mm 5 mps 738 mmHg 63%
    10:00 +32°C° 0 mm 5 mps 738 mmHg 57%
    11:00 +34°C° 0 mm 4 mps 737 mmHg 51%
    12:00 +35°C° 0 mm 4 mps 737 mmHg 44%
    13:00 +35°C° 0 mm 4 mps 736 mmHg 42%
    14:00 +36°C° 0 mm 4 mps 735 mmHg 39%
    15:00 +36°C° 0 mm 3 mps 734 mmHg 36%
    16:00 +36°C° 0 mm 4 mps 735 mmHg 37%
    17:00 +36°C° 0 mm 4 mps 735 mmHg 38%
    18:00 +36°C° 0 mm 4 mps 735 mmHg 39%
    19:00 +35°C° 0 mm 3 mps 736 mmHg 41%
    20:00 +35°C° 0 mm 3 mps 736 mmHg 43%
    21:00 +34°C° 0 mm 3 mps 737 mmHg 45%
    22:00 +33°C° 0 mm 3 mps 737 mmHg 49%
    23:00 +32°C° 0 mm 4 mps 736 mmHg 54%

    24 November, Saturday

    Time Temperature Precipitation Wind Pressure Humidity
    00:00 +32°C° 0 mm 5 mps 736 mmHg 58%
    01:00 +30°C° 0.1 mm 5 mps 736 mmHg 63%
    02:00 +29°C° 0.1 mm 6 mps 736 mmHg 67%
    03:00 +28°C° 0.1 mm 6 mps 736 mmHg 72%
    04:00 +28°C° 0.3 mm 5 mps 736 mmHg 73%
    05:00 +28°C° 0.3 mm 5 mps 737 mmHg 75%
    06:00 +27°C° 0.3 mm 4 mps 737 mmHg 76%
    07:00 +28°C° 0.2 mm 5 mps 738 mmHg 72%
    08:00 +29°C° 0.2 mm 5 mps 738 mmHg 68%
    09:00 +30°C° 0.2 mm 5 mps 739 mmHg 64%
    10:00 +32°C° 0.3 mm 5 mps 738 mmHg 59%
    11:00 +33°C° 0.3 mm 5 mps 737 mmHg 54%
    12:00 +35°C° 0.3 mm 5 mps 737 mmHg 49%
    13:00 +35°C° 0.2 mm 4 mps 736 mmHg 46%
    14:00 +36°C° 0.2 mm 4 mps 736 mmHg 44%
    15:00 +36°C° 0.2 mm 4 mps 735 mmHg 41%
    16:00 +36°C° 0 mm 4 mps 735 mmHg 41%
    17:00 +36°C° 0 mm 3 mps 735 mmHg 42%
    18:00 +35°C° 0 mm 3 mps 736 mmHg 42%
    19:00 +35°C° 0 mm 3 mps 736 mmHg 44%
    20:00 +34°C° 0 mm 4 mps 737 mmHg 46%
    21:00 +34°C° 0 mm 4 mps 737 mmHg 48%
    22:00 +33°C° 0.2 mm 5 mps 737 mmHg 53%
    23:00 +32°C° 0.2 mm 5 mps 737 mmHg 58%
    Show more